STARLINK-5709 (55621 NORAD) Tracking and Keplerian Element Data

This shows tracking and keplerian element data for the satellite.

Feedback or suggestion? Click here.




ElementValue
Catalog55621
NameSTARLINK-5709
Epoch Orbit310
Epoch Day62.85422083
Epoch Year2023
RAAN237.784
Inclination42.9987
Eccentricity0.0001639
Argument of Perigee271.0748
Mean Anonmoly88.9932
Mean Motion15.71359492
Decay Rate0.00058093
L11 55621U 23020BE 23062.85422083 .00058093 00000+0 44328-3 0 9999
L22 55621 42.9987 237.7840 0001639 271.0748 88.9932 15.71359492 3108



Live tracking and technical data element details for STARLINK-5709 (NORAD 55621). STARLINK-5709 can be tracked NOW for your location showing map with azimuth and elevation plus other details from your city location.







IsCatalogInMostPopularTable: catalog: 55621, numindb: 3
Update: records affected: 1



GetName: 55621 STARLINK-5709

Hit Count: updated at: Wed, 22 Mar 2023 16:33:49 GMT